This is the latest recevied weather packets stored in our database for station/object IR4UCA. If no packets are shown the sender has not sent any weather packets the latest 10 day(s).
| Time | Temp. | Humidity | Pressure | Rain* | Wind** | Luminosity | Snow |
|---|---|---|---|---|---|---|---|
| 1777836585 | 21.67° C | 44% | 1016 hPa | 0 mm | - | - | - |
| 1777835384 | 22.22° C | 43% | 1015.8 hPa | 0 mm | - | - | - |
| 1777834859 | 22.22° C | 42% | 1015.7 hPa | 0 mm | - | - | - |
| 1777834783 | 22.22° C | 42% | 1015.7 hPa | 0 mm | - | - | - |
| 1777834186 | 22.78° C | 41% | 1015.7 hPa | 0 mm | - | - | - |
| 1777833586 | 23.33° C | 39% | 1015.6 hPa | 0 mm | - | - | - |
| 1777832983 | 23.33° C | 40% | 1015.6 hPa | 0 mm | - | - | - |
| 1777831785 | 23.89° C | 41% | 1015.4 hPa | 0 mm | - | - | - |
| 1777831186 | 24.44° C | 40% | 1015.3 hPa | 0 mm | - | - | - |
| 1777830586 | 24.44° C | 40% | 1015.4 hPa | 0 mm | - | - | - |
| 1777829986 | 25° C | 39% | 1015.4 hPa | 0 mm | - | - | - |
| 1777829386 | 25° C | 39% | 1015.5 hPa | 0 mm | - | - | - |
| 1777828183 | 25.56° C | 37% | 1015.4 hPa | 0 mm | - | - | - |
| 1777827583 | 25.56° C | 38% | 1015.5 hPa | 0 mm | - | - | - |
| 1777826986 | 25.56° C | 38% | 1015.4 hPa | 0 mm | - | - | - |
| 1777826387 | 25.56° C | 37% | 1015.3 hPa | 0 mm | - | - | - |
| 1777825786 | 26.11° C | 37% | 1015.5 hPa | 0 mm | - | - | - |
| 1777824584 | 26.11° C | 37% | 1015.6 hPa | 0 mm | - | - | - |
| 1777823983 | 26.11° C | 36% | 1015.8 hPa | 0 mm | - | - | - |
| 1777822783 | 26.11° C | 35% | 1015.9 hPa | 0 mm | - | - | - |
| 1777822183 | 25.56° C | 35% | 1016.1 hPa | 0 mm | - | - | - |
| 1777820986 | 26.11° C | 34% | 1016.3 hPa | 0 mm | - | - | - |
| 1777820386 | 26.11° C | 34% | 1016.3 hPa | 0 mm | - | - | - |
| 1777819783 | 25.56° C | 36% | 1016.4 hPa | 0 mm | - | - | - |
| 1777819183 | 26.11° C | 34% | 1016.5 hPa | 0 mm | - | - | - |
* Rain latest hour (hover to see other rain measurements)
** Current wind speed in m/s (hover to see current wind gust speed)